Location: Albany
(35.0170°S, 117.8920°E)
Time: 09:35:19
(UTC+08:00)

S-56A Canister/Altair - Pass Details

Date: 22 January 2021
Orbit: 632 x 2501 km, 38.9° (Epoch: 25 February)

Event Time Altitude Azimuth Distance (km) Brightness Sun altitude
Rises 21:09:50 0° 248° (WSW) 5,911 13.3 -19.2°
Reaches altitude 10° 21:14:20 10° 254° (WSW) 4,688 12.4 -19.9°
Maximum altitude 21:25:26 39° 316° (NW) 2,335 9.9 -21.5°
Enters shadow 21:30:03 25° 5° (N) 2,594 9.8 -22.1°
Drops below altitude 10° 21:33:14 10° 22° (NNE) 3,284 - -22.6°
Sets 21:35:50 0° 30° (NNE) 4,016 - -23.0°
